Home > Time Zones > World Clock > Weather > Spain > Cadiz > Past weeks

Flag for Spain Weather past 2 weeks in Cadiz, Cádiz, Spain

Now
59 °F

Broken clouds.


Feels Like: 54 °F
Forecast: 48 / 55 °F
Wind: 30 mph from West

Location: Rota Airport

Current Time: Jan 31, 2015 at 11:15:26 AM

Latest Report: Jan 31, 2015 at 10:00 AM


Visibility: 5 mi

Pressure: 29.80 "Hg

Humidity: 88%

Dew point: 55 °F

Location of CadizLocation

Historic Weather in Cadiz — Graph

°F

Cadiz temperature yesterday

Maximum temperature yesterday: 63 °F (at 2:00 PM)
Minimum temperature yesterday: 57 °F (at 12:00 AM)
Average temperature yesterday: 59 °F

Past Weeks' High & Low Weather Summary

 TemperatureHumidityPressure
High63 °F (Jan 26, 5:00 PM)100% (Jan 17, 7:00 AM)30.39 "Hg (Jan 17, 7:00 AM)
Low37 °F (Jan 17, 7:00 AM)42% (Jan 26, 5:00 PM)29.68 "Hg (Jan 19, 5:00 AM)
Average51 °F79%30.14 "Hg
* Reported Jan 16 10:00 AM — Jan 31 10:00 AM, Cadiz, Weather by CustomWeather, © 2014

Note: Actual official high and low records may vary slightly from our data, if they occured in-between our weather recording intervals... More about our weather records

Advertising

Cadiz weather history for previous 24 hours

 ConditionsComfort  
Time TempWeatherWind HumidityBarometerVisibility
10:00 AM
Jan 31
59 °FBroken clouds.30 mph88%29.80 "Hg5 mi
9:00 AM59 °FPartly sunny.30 mph82%29.77 "HgN/A
8:00 AM59 °FPassing clouds.31 mph82%29.77 "HgN/A
7:00 AM59 °FPassing clouds.25 mph88%29.77 "HgN/A
6:00 AM59 °FPassing clouds.28 mph88%29.77 "HgN/A
5:00 AM59 °FOvercast.26 mph88%29.80 "HgN/A
4:00 AM59 °FOvercast.24 mph88%29.83 "HgN/A
3:00 AM59 °FPartly cloudy.26 mph88%29.86 "HgN/A
2:00 AM59 °FPartly cloudy.22 mph88%29.86 "HgN/A
1:00 AM59 °FPassing clouds.24 mph88%29.89 "HgN/A
12:00 AM59 °FOvercast.23 mph88%29.89 "HgN/A
11:00 PM
Jan 30
59 °FPassing clouds.24 mph88%29.92 "HgN/A
10:00 PM59 °FPassing clouds.25 mph88%29.89 "HgN/A
9:00 PM59 °FPassing clouds.24 mph94%29.89 "HgN/A
8:00 PM59 °FPassing clouds.23 mph94%29.92 "HgN/A
7:00 PM59 °FPassing clouds.24 mph94%29.89 "HgN/A
6:00 PM59 °FPassing clouds.23 mph94%29.92 "HgN/A
5:00 PM61 °FScattered clouds.22 mph88%29.92 "HgN/A
4:00 PM61 °FBroken clouds.21 mph88%29.92 "HgN/A
3:00 PM61 °FPartly sunny.17 mph88%29.95 "HgN/A
2:00 PM63 °FPartly sunny.20 mph77%29.98 "HgN/A
1:00 PM61 °FPartly sunny.18 mph88%30.01 "HgN/A
12:00 PM59 °FPartly sunny.17 mph88%30.04 "HgN/A
11:00 AM59 °FPartly sunny.16 mph94%30.04 "HgN/A
Weather by CustomWeather, © 2014

See weather overviewHow to use our weather pages